Weather History for Stuttgart, AR

Change the Weather History Date:

Tuesday, August 6, 2013

  Actual Average Record
Temperature  
Mean Temperature 78 °F -  
Max Temperature 87 °F 87 °F 102 °F (2011)
Min Temperature 75 °F 69 °F 62 °F (1997)
Cooling Degree Days 12    
Growing Degree Days 28 (Base 50)    
Moisture  
Dew Point 71 °F    
Average Humidity 79    
Maximum Humidity 89    
Minimum Humidity 62    
Precipitation  
Precipitation 0.00 in - - ()
Sea Level Pressure  
Sea Level Pressure 29.90 in    
Wind  
Wind Speed 7 mph (SSE)    
Max Wind Speed 13 mph    
Max Gust Speed -    
Visibility 10 miles    
Events      
Averages and records for this station are not official NWS values.
T = Trace of Precipitation, MM = Missing Value Source: NWS Daily Summary

Daily Weather History Graph

Daily Weather History Graph

Search for Another Location

Airport:

Trip Planner

Search our weather history database for the weather conditions in past years. The results will help you decide how hot, cold, wet, or windy it might be!

Date:

Astronomy

Aug. 06, 2013 Rise Set
Actual Time 6:20 AM CDT 8:03 PM CDT
Civil Twilight 5:53 AM CDT 8:30 PM CDT
Nautical Twilight 5:20 AM CDT 9:03 PM CDT
Astronomical Twilight 4:45 AM CDT 9:37 PM CDT
Moon 6:09 AM CDT (8/6) 7:42 PM CDT (8/6)
Length of Visible Light 14h 37m
Length of Day
13h 42m
Waning Crescent, 0% of the Moon is Illuminated
Aug 6
Waning Crescent
Aug 6
New
Aug 14
First Quarter
Aug 20
Full
Aug 28
Last Quarter

Hourly Weather History & Observations

Time (CDT) Temp. Heat Index Dew Point Humidity Pressure Visibility Wind Dir Wind Speed Gust Speed Precip Events Conditions
12:15 AM - - - N/A% 29.93 in 10.0 mi South 8.1 mph - N/A   Mostly Cloudy
12:35 AM - - - N/A% 29.92 in 10.0 mi SSE 5.8 mph - N/A   Scattered Clouds
12:55 AM - - - N/A% 29.92 in 10.0 mi South 4.6 mph - N/A   Scattered Clouds
1:15 AM - - - N/A% 29.94 in 10.0 mi NE 4.6 mph - N/A   Clear
1:35 AM - - - N/A% 29.95 in 10.0 mi NNE 10.4 mph - N/A   Clear
1:55 AM - - - N/A% 29.92 in 10.0 mi ENE 3.5 mph - N/A   Clear
2:15 AM - - - N/A% 29.90 in 10.0 mi SE 10.4 mph - N/A   Clear
2:35 AM - - - N/A% 29.89 in 10.0 mi SSE 6.9 mph - N/A   Clear
2:55 AM - - - N/A% 29.87 in 10.0 mi South 8.1 mph - N/A   Clear
3:15 AM - - - N/A% 29.87 in 10.0 mi South 5.8 mph - N/A   Clear
3:35 AM - - - N/A% 29.87 in 10.0 mi South 6.9 mph - N/A   Clear
3:55 AM - - - N/A% 29.87 in 10.0 mi SSE 5.8 mph - N/A   Clear
4:15 AM - - - N/A% 29.88 in 10.0 mi SSE 6.9 mph - N/A   Clear
4:35 AM 75.2 °F - 69.8 °F 83% 29.89 in 10.0 mi SE 4.6 mph - N/A   Clear
4:55 AM 75.2 °F - 71.6 °F 89% 29.90 in 9.0 mi SE 4.6 mph - N/A   Clear
5:15 AM 75.2 °F - 69.8 °F 83% 29.90 in 10.0 mi ESE 4.6 mph - N/A   Clear
5:35 AM 75.2 °F - 69.8 °F 83% 29.91 in 10.0 mi SE 5.8 mph - N/A   Clear
5:55 AM - - - N/A% 29.90 in 10.0 mi SSE 6.9 mph - N/A   Clear
6:15 AM - - - N/A% 29.90 in 10.0 mi South 8.1 mph - N/A   Clear
6:35 AM - - - N/A% 29.91 in 10.0 mi South 8.1 mph - N/A   Clear
6:55 AM - - - N/A% 29.91 in 10.0 mi South 10.4 mph - N/A   Clear
7:15 AM - - - N/A% 29.91 in 10.0 mi South 12.7 mph - N/A   Clear
7:35 AM - - - N/A% 29.91 in 10.0 mi South 10.4 mph - N/A   Clear
7:55 AM - - - N/A% 29.92 in 10.0 mi South 6.9 mph - N/A   Clear
8:15 AM - - - N/A% 29.93 in 10.0 mi South 5.8 mph - N/A   Mostly Cloudy
8:35 AM 80.6 °F 84.6 °F 71.6 °F 74% 29.94 in 10.0 mi SW 3.5 mph - N/A   Overcast
8:55 AM - - - N/A% 29.93 in 10.0 mi SW 4.6 mph - N/A   Scattered Clouds
9:15 AM - - - N/A% 29.93 in 10.0 mi SSW 6.9 mph - N/A   Clear
9:35 AM - - - N/A% 29.93 in 10.0 mi WSW 5.8 mph - N/A   Clear
9:55 AM - - - N/A% 29.93 in 10.0 mi SW 6.9 mph - N/A   Partly Cloudy
10:15 AM 87.8 °F 95.6 °F 73.4 °F 62% 29.94 in 10.0 mi SW 9.2 mph - N/A   Partly Cloudy
10:35 AM - - - N/A% 29.94 in 10.0 mi WSW 6.9 mph - N/A   Clear
10:55 AM - - - N/A% 29.95 in 10.0 mi West 5.8 mph - N/A   Clear
11:15 AM - - - N/A% 29.94 in 10.0 mi West 6.9 mph - N/A   Partly Cloudy
11:35 AM - - - N/A% 29.95 in 10.0 mi WNW 6.9 mph - N/A   Clear
11:55 AM - - - N/A% 29.95 in 10.0 mi NNW 5.8 mph - N/A   Scattered Clouds
12:15 PM - - - N/A% 29.95 in 10.0 mi NNW 4.6 mph - N/A   Scattered Clouds
12:35 PM - - - N/A% 29.95 in 10.0 mi North 5.8 mph - N/A   Partly Cloudy
12:55 PM - - - N/A% 29.94 in 10.0 mi Calm Calm - N/A   Clear
1:15 PM - - - N/A% 29.94 in 10.0 mi North 4.6 mph - N/A   Partly Cloudy
1:35 PM - - - N/A% 29.94 in 10.0 mi NNE 8.1 mph - N/A   Scattered Clouds
1:55 PM - - - N/A% 29.94 in 10.0 mi North 4.6 mph - N/A   Clear
2:15 PM - - - N/A% 29.93 in 10.0 mi East 4.6 mph - N/A   Clear
2:35 PM - - - N/A% 29.92 in 10.0 mi NE 6.9 mph - N/A   Clear
2:55 PM - - - N/A% 29.92 in 10.0 mi NE 5.8 mph - N/A   Clear
3:15 PM - - - N/A% 29.91 in 10.0 mi East 4.6 mph - N/A   Partly Cloudy
3:35 PM - - - N/A% 29.90 in 10.0 mi SSW 4.6 mph - N/A   Partly Cloudy
3:55 PM - - - N/A% 29.89 in 10.0 mi SE 3.5 mph - N/A   Clear
4:15 PM - - - N/A% 29.88 in 10.0 mi SE 4.6 mph - N/A   Clear
4:35 PM - - - N/A% 29.88 in 10.0 mi SSE 5.8 mph - N/A   Clear
4:55 PM - - - N/A% 29.87 in 10.0 mi SSE 3.5 mph - N/A   Clear
5:15 PM - - - N/A% 29.87 in 10.0 mi SE 3.5 mph - N/A   Clear
5:35 PM - - - N/A% 29.87 in 10.0 mi South 3.5 mph - N/A   Clear
5:55 PM - - - N/A% 29.87 in 10.0 mi ESE 5.8 mph - N/A   Clear
6:15 PM - - - N/A% 29.87 in 10.0 mi East 8.1 mph - N/A   Clear
6:35 PM - - - N/A% 29.87 in 10.0 mi ESE 5.8 mph - N/A   Clear
6:55 PM - - - N/A% 29.87 in 10.0 mi East 6.9 mph - N/A   Clear
7:15 PM - - - N/A% 29.87 in 10.0 mi SE 6.9 mph - N/A   Clear
7:35 PM - - - N/A% 29.86 in 10.0 mi SE 6.9 mph - N/A   Clear
7:55 PM - - - N/A% 29.86 in 10.0 mi SE 8.1 mph - N/A   Clear
8:15 PM - - - N/A% 29.86 in 10.0 mi SSE 8.1 mph - N/A   Clear
8:35 PM - - - N/A% 29.86 in 10.0 mi SSE 9.2 mph - N/A   Clear
8:55 PM - - - N/A% 29.87 in 10.0 mi SSE 9.2 mph - N/A   Clear
9:15 PM - - - N/A% 29.87 in 10.0 mi SSE 9.2 mph - N/A   Clear
9:35 PM - - - N/A% 29.88 in 10.0 mi SSE 9.2 mph - N/A   Clear
9:55 PM - - - N/A% 29.89 in 10.0 mi SSE 6.9 mph - N/A   Clear
10:15 PM - - - N/A% 29.89 in 10.0 mi SSE 10.4 mph - N/A   Clear
10:35 PM - - - N/A% 29.89 in 10.0 mi SSE 9.2 mph - N/A   Clear
10:55 PM - - - N/A% 29.90 in 10.0 mi SSE 8.1 mph - N/A   Clear
11:15 PM - - - N/A% 29.90 in 10.0 mi SSE 8.1 mph - N/A   Clear
11:35 PM - - - N/A% 29.90 in 10.0 mi South 9.2 mph - N/A   Clear
11:55 PM - - - N/A% 29.90 in 10.0 mi South 10.4 mph - N/A   Clear